| time (UTC) | temp C | wind direction | speed KPH | gust KPH | rain 1hr cm | rain 24hr cm | rain mn cm | humidity % | barometer mb |
| 20260507185504 | 9 | 215 | 14.5 | 24.1 | 0.00 | 1.50 | 0.00 | 44 | 1011.3 |
| 20260507185004 | 10 | 232 | 14.5 | 22.5 | 0.00 | 1.50 | 0.00 | 43 | 1011.4 |
| 20260507184504 | 9 | 241 | 16.1 | 25.7 | 0.00 | 1.52 | 0.00 | 43 | 1011.5 |
| 20260507183504 | 9 | 224 | 19.3 | 32.2 | 0.00 | 1.52 | 0.00 | 43 | 1011.5 |
| 20260507183004 | 9 | 239 | 22.5 | 32.2 | 0.00 | 1.55 | 0.00 | 44 | 1011.4 |
| 20260507182504 | 9 | 246 | 14.5 | 32.2 | 0.00 | 1.55 | 0.00 | 44 | 1011.4 |
| 20260507182004 | 8 | 244 | 20.9 | 38.6 | 0.00 | 1.57 | 0.00 | 44 | 1011.3 |
| 20260507181504 | 8 | 244 | 20.9 | 32.2 | 0.00 | 1.57 | 0.00 | 44 | 1011.2 |
| 20260507181004 | 8 | 240 | 27.4 | 37.0 | 0.00 | 1.57 | 0.00 | 44 | 1011.0 |
| 20260507174504 | 7 | 235 | 22.5 | 41.8 | 0.00 | 1.65 | 0.00 | 46 | 1011.6 |
| 20260507174004 | 8 | 238 | 25.7 | 40.2 | 0.00 | 1.68 | 0.00 | 45 | 1011.8 |
| 20260507173504 | 8 | 248 | 20.9 | 38.6 | 0.00 | 1.68 | 0.00 | 45 | 1012.0 |
| 20260507173004 | 8 | 244 | 24.1 | 37.0 | 0.00 | 1.70 | 0.00 | 45 | 1012.1 |
| 20260507172504 | 8 | 247 | 24.1 | 41.8 | 0.00 | 1.70 | 0.00 | 45 | 1012.1 |
| 20260507172004 | 8 | 249 | 24.1 | 35.4 | 0.00 | 1.70 | 0.00 | 45 | 1012.1 |
| 20260507171504 | 8 | 243 | 11.3 | 32.2 | 0.00 | 1.70 | 0.00 | 48 | 1012.2 |
| 20260507171003 | 7 | 259 | 20.9 | 32.2 | 0.00 | 1.70 | 0.00 | 49 | 1012.4 |
| 20260507170504 | 6 | 242 | 14.5 | 32.2 | 0.00 | 1.70 | 0.00 | 50 | 1012.6 |
| 20260507170005 | 7 | 248 | 19.3 | 29.0 | 0.00 | 1.70 | 0.00 | 49 | 1012.7 |
| 20260507165004 | 7 | 249 | 9.7 | 22.5 | 0.00 | 1.70 | 0.00 | 49 | 1013.1 |
| 20260507164504 | 6 | 252 | 9.7 | 19.3 | 0.00 | 1.70 | 0.00 | 49 | 1012.9 |
| 20260507163504 | 6 | 238 | 16.1 | 29.0 | 0.00 | 1.70 | 0.00 | 49 | 1012.7 |
| 20260507163004 | 7 | 228 | 22.5 | 37.0 | 0.00 | 1.70 | 0.00 | 47 | 1012.8 |
| 20260507162504 | 7 | 236 | 19.3 | 32.2 | 0.00 | 1.70 | 0.00 | 47 | 1013.0 |
| 20260507162004 | 7 | 237 | 19.3 | 37.0 | 0.00 | 1.70 | 0.00 | 47 | 1012.8 |
| 20260507161504 | 6 | 251 | 19.3 | 32.2 | 0.00 | 1.70 | 0.00 | 48 | 1013.0 |
| 20260507161004 | 6 | 246 | 20.9 | 29.0 | 0.00 | 1.70 | 0.00 | 48 | 1012.9 |
| 20260507160504 | 6 | 234 | 19.3 | 32.2 | 0.00 | 1.70 | 0.00 | 48 | 1012.7 |
| 20260507160005 | 6 | 221 | 14.5 | 25.7 | 0.00 | 1.70 | 0.00 | 50 | 1012.7 |
| 20260507155004 | 5 | 217 | 16.1 | 32.2 | 0.00 | 1.70 | 0.00 | 50 | 1013.0 |
| 20260507154504 | 5 | 225 | 9.7 | 20.9 | 0.00 | 1.70 | 0.00 | 49 | 1013.1 |
| 20260507154004 | 5 | 155 | 3.2 | 9.7 | 0.00 | 1.70 | 0.00 | 51 | 1013.3 |
| 20260507153504 | 5 | 207 | 8.0 | 27.4 | 0.00 | 1.70 | 0.00 | 52 | 1013.4 |
| 20260507153004 | 4 | 188 | 16.1 | 32.2 | 0.00 | 1.70 | 0.00 | 51 | 1013.4 |
| 20260507152504 | 4 | 197 | 20.9 | 37.0 | 0.00 | 1.70 | 0.00 | 50 | 1013.4 |
| 20260507152004 | 4 | 201 | 14.5 | 27.4 | 0.00 | 1.70 | 0.00 | 51 | 1013.5 |
| 20260507151504 | 4 | 222 | 17.7 | 40.2 | 0.00 | 1.70 | 0.00 | 51 | 1013.7 |
| 20260507151004 | 4 | 203 | 14.5 | 32.2 | 0.00 | 1.70 | 0.00 | 50 | 1013.9 |
| 20260507150504 | 4 | 192 | 12.9 | 24.1 | 0.00 | 1.70 | 0.00 | 50 | 1014.2 |
| 20260507150005 | 4 | 190 | 16.1 | 25.7 | 0.00 | 1.70 | 0.00 | 50 | 1014.4 |
| 20260507145504 | 3 | 211 | 9.7 | 20.9 | 0.00 | 1.70 | 0.00 | 51 | 1014.7 |
| 20260507145004 | 3 | 227 | 11.3 | 20.9 | 0.00 | 1.70 | 0.00 | 51 | 1014.9 |
| 20260507144004 | 3 | 246 | 19.3 | 37.0 | 0.00 | 1.70 | 0.00 | 50 | 1015.3 |
| 20260507143004 | 3 | 244 | 19.3 | 33.8 | 0.00 | 1.70 | 0.00 | 51 | 1015.0 |
| 20260507142504 | 3 | 238 | 16.1 | 32.2 | 0.00 | 1.70 | 0.00 | 51 | 1015.1 |
| 20260507141504 | 4 | 245 | 16.1 | 29.0 | 0.00 | 1.70 | 0.00 | 50 | 1014.9 |
| 20260507141004 | 4 | 246 | 19.3 | 27.4 | 0.00 | 1.70 | 0.00 | 50 | 1014.9 |
| 20260507140504 | 5 | 262 | 11.3 | 24.1 | 0.00 | 1.70 | 0.00 | 49 | 1015.0 |
| 20260507140004 | 4 | 263 | 3.2 | 19.3 | 0.00 | 1.70 | 0.00 | 51 | 1015.1 |
| 20260507135505 | 4 | 270 | 14.5 | 24.1 | 0.00 | 1.70 | 0.00 | 52 | 1015.0 |
| 20260507135005 | 4 | 136 | 4.8 | 32.2 | 0.00 | 1.70 | 0.00 | 52 | 1015.2 |
| 20260507134504 | 4 | 231 | 4.8 | 19.3 | 0.00 | 1.70 | 0.00 | 53 | 1015.3 |
| 20260507134003 | 3 | 203 | 12.9 | 33.8 | 0.00 | 1.70 | 0.00 | 52 | 1015.3 |
| 20260507133504 | 3 | 223 | 9.7 | 19.3 | 0.00 | 1.70 | 0.00 | 52 | 1015.3 |
| 20260507132504 | 3 | 208 | 11.3 | 27.4 | 0.00 | 1.70 | 0.00 | 53 | 1015.2 |
| 20260507132004 | 3 | 198 | 14.5 | 20.9 | 0.00 | 1.70 | 0.00 | 53 | 1015.2 |
| 20260507131503 | 3 | 191 | 12.9 | 22.5 | 0.00 | 1.70 | 0.00 | 52 | 1015.2 |
| 20260507131004 | 3 | 204 | 14.5 | 20.9 | 0.00 | 1.70 | 0.00 | 52 | 1015.2 |
| 20260507130504 | 3 | 236 | 14.5 | 25.7 | 0.00 | 1.70 | 0.00 | 52 | 1015.2 |
| 20260507125004 | 2 | 228 | 14.5 | 24.1 | 0.00 | 1.70 | 0.00 | 53 | 1015.2 |
| 20260507124504 | 2 | 235 | 14.5 | 22.5 | 0.00 | 1.70 | 0.00 | 53 | 1015.2 |
| 20260507124004 | 2 | 240 | 14.5 | 22.5 | 0.00 | 1.70 | 0.00 | 52 | 1015.1 |
| 20260507123004 | 2 | 236 | 17.7 | 24.1 | 0.00 | 1.70 | 0.00 | 53 | 1015.2 |
| 20260507122504 | 2 | 236 | 16.1 | 22.5 | 0.00 | 1.70 | 0.00 | 52 | 1015.3 |
| 20260507122005 | 2 | 238 | 14.5 | 22.5 | 0.00 | 1.70 | 0.00 | 53 | 1015.4 |
| 20260507121504 | 2 | 245 | 16.1 | 24.1 | 0.00 | 1.70 | 0.00 | 53 | 1015.4 |
| 20260507120504 | 2 | 244 | 14.5 | 27.4 | 0.00 | 1.70 | 0.00 | 53 | 1015.2 |
| 20260507115504 | 2 | 251 | 20.9 | 33.8 | 0.00 | 1.70 | 0.00 | 53 | 1015.2 |
| 20260507115004 | 2 | 248 | 19.3 | 29.0 | 0.00 | 1.70 | 0.00 | 53 | 1015.4 |
| 20260507114504 | 2 | 247 | 9.7 | 22.5 | 0.00 | 1.70 | 0.00 | 54 | 1015.6 |
| 20260507114004 | 2 | 255 | 8.0 | 16.1 | 0.00 | 1.70 | 0.00 | 54 | 1015.6 |
| 20260507113504 | 2 | 249 | 9.7 | 19.3 | 0.00 | 1.70 | 0.00 | 54 | 1015.6 |
| 20260507113004 | 2 | 249 | 12.9 | 20.9 | 0.00 | 1.70 | 0.00 | 53 | 1015.4 |
| 20260507112504 | 2 | 243 | 9.7 | 19.3 | 0.00 | 1.70 | 0.00 | 53 | 1015.3 |
| 20260507112004 | 2 | 268 | 14.5 | 24.1 | 0.00 | 1.70 | 0.00 | 53 | 1015.3 |
| 20260507111506 | 2 | 251 | 11.3 | 22.5 | 0.00 | 1.70 | 0.00 | 53 | 1015.5 |
| 20260507111003 | 2 | 262 | 14.5 | 29.0 | 0.00 | 1.70 | 0.00 | 52 | 1015.4 |
| 20260507110504 | 2 | 243 | 11.3 | 24.1 | 0.00 | 1.70 | 0.00 | 52 | 1015.6 |
| 20260507110004 | 2 | 260 | 9.7 | 25.7 | 0.00 | 1.70 | 0.00 | 52 | 1015.6 |
| 20260507105504 | 2 | 253 | 16.1 | 29.0 | 0.00 | 1.70 | 0.00 | 51 | 1015.6 |
| 20260507105004 | 2 | 255 | 14.5 | 32.2 | 0.00 | 1.70 | 0.00 | 51 | 1016.0 |
| 20260507104004 | 2 | 250 | 20.9 | 33.8 | 0.00 | 1.70 | 0.00 | 51 | 1016.0 |
| 20260507103504 | 2 | 245 | 19.3 | 33.8 | 0.00 | 1.70 | 0.00 | 51 | 1015.9 |
| 20260507103004 | 2 | 244 | 16.1 | 32.2 | 0.00 | 1.70 | 0.00 | 51 | 1015.9 |
| 20260507102504 | 2 | 255 | 16.1 | 33.8 | 0.00 | 1.70 | 0.00 | 52 | 1016.0 |
| 20260507102006 | 2 | 263 | 14.5 | 29.0 | 0.00 | 1.70 | 0.00 | 52 | 1016.0 |
| 20260507101504 | 2 | 255 | 19.3 | 32.2 | 0.00 | 1.70 | 0.00 | 51 | 1016.0 |
| 20260507101004 | 2 | 248 | 14.5 | 35.4 | 0.00 | 1.70 | 0.00 | 51 | 1015.9 |
| 20260507100504 | 2 | 253 | 24.1 | 38.6 | 0.00 | 1.70 | 0.00 | 51 | 1015.9 |
| 20260507100004 | 2 | 247 | 20.9 | 32.2 | 0.00 | 1.70 | 0.00 | 51 | 1015.9 |
| 20260507095504 | 2 | 247 | 20.9 | 37.0 | 0.00 | 1.70 | 0.00 | 51 | 1015.9 |
| 20260507094004 | 2 | 248 | 25.7 | 38.6 | 0.00 | 1.70 | 0.00 | 51 | 1015.7 |
| 20260507093504 | 2 | 250 | 29.0 | 46.7 | 0.00 | 1.70 | 0.00 | 51 | 1015.5 |
| 20260507093003 | 2 | 245 | 29.0 | 38.6 | 0.00 | 1.70 | 0.00 | 51 | 1015.6 |
| 20260507092504 | 2 | 249 | 25.7 | 45.1 | 0.00 | 1.70 | 0.00 | 51 | 1015.8 |
| 20260507092004 | 2 | 257 | 27.4 | 41.8 | 0.00 | 1.70 | 0.00 | 51 | 1015.8 |
| 20260507091503 | 2 | 246 | 24.1 | 35.4 | 0.00 | 1.70 | 0.00 | 51 | 1015.8 |
| 20260507091004 | 2 | 250 | 25.7 | 38.6 | 0.00 | 1.70 | 0.00 | 51 | 1015.7 |
| 20260507090504 | 2 | 254 | 22.5 | 37.0 | 0.00 | 1.70 | 0.00 | 52 | 1015.8 |
| 20260507085504 | 2 | 252 | 19.3 | 35.4 | 0.00 | 1.70 | 0.00 | 52 | 1015.8 |
| 20260507085004 | 2 | 250 | 24.1 | 37.0 | 0.00 | 1.70 | 0.00 | 52 | 1015.5 |
| 20260507084504 | 2 | 248 | 20.9 | 33.8 | 0.00 | 1.70 | 0.00 | 52 | 1015.5 |
| 20260507084004 | 2 | 248 | 20.9 | 32.2 | 0.00 | 1.70 | 0.00 | 52 | 1015.4 |
| 20260507083005 | 2 | 245 | 22.5 | 37.0 | 0.00 | 1.70 | 0.00 | 50 | 1015.3 |
| 20260507082004 | 2 | 245 | 20.9 | 35.4 | 0.00 | 1.70 | 0.00 | 51 | 1015.3 |
| 20260507081504 | 2 | 256 | 20.9 | 35.4 | 0.00 | 1.70 | 0.00 | 50 | 1015.3 |
| 20260507081004 | 2 | 248 | 24.1 | 38.6 | 0.00 | 1.70 | 0.00 | 50 | 1015.6 |
| 20260507080504 | 2 | 252 | 24.1 | 38.6 | 0.00 | 1.70 | 0.00 | 50 | 1015.5 |
| 20260507075504 | 2 | 246 | 20.9 | 32.2 | 0.00 | 1.70 | 0.00 | 50 | 1016.0 |
| 20260507074504 | 2 | 241 | 11.3 | 24.1 | 0.00 | 1.70 | 0.00 | 50 | 1016.5 |
| 20260507074004 | 2 | 258 | 8.0 | 16.1 | 0.00 | 1.70 | 0.00 | 50 | 1016.5 |
| 20260507073504 | 1 | 251 | 9.7 | 19.3 | 0.00 | 1.70 | 0.00 | 50 | 1016.5 |
| 20260507073004 | 1 | 246 | 9.7 | 19.3 | 0.00 | 1.70 | 0.00 | 50 | 1016.6 |
| 20260507072504 | 1 | 280 | 11.3 | 22.5 | 0.00 | 1.70 | 0.00 | 51 | 1016.6 |
| 20260507071504 | 1 | 290 | 9.7 | 19.3 | 0.00 | 1.70 | 0.00 | 51 | 1016.7 |
| 20260507071003 | 1 | 263 | 9.7 | 22.5 | 0.00 | 1.70 | 0.00 | 51 | 1016.8 |
| 20260507070504 | 1 | 276 | 11.3 | 24.1 | 0.00 | 1.70 | 0.00 | 50 | 1016.9 |
| 20260507070009 | 1 | 266 | 8.0 | 19.3 | 0.00 | 1.70 | 0.00 | 50 | 1017.0 |
| 20260507065504 | 1 | 263 | 8.0 | 22.5 | 0.00 | 1.70 | 0.00 | 51 | 1016.7 |
| 20260507065004 | 1 | 252 | 19.3 | 32.2 | 0.00 | 1.70 | 0.00 | 50 | 1016.6 |
| 20260507064504 | 1 | 256 | 16.1 | 37.0 | 0.00 | 1.70 | 0.00 | 51 | 1016.6 |
| 20260507064004 | 1 | 254 | 14.5 | 25.7 | 0.00 | 1.70 | 0.00 | 51 | 1016.7 |
| 20260507063504 | 1 | 265 | 19.3 | 37.0 | 0.00 | 1.70 | 0.00 | 50 | 1016.9 |
| 20260507063004 | 1 | 265 | 11.3 | 24.1 | 0.00 | 1.70 | 0.00 | 50 | 1017.1 |
| 20260507062504 | 1 | 253 | 16.1 | 22.5 | 0.00 | 1.70 | 0.00 | 50 | 1017.2 |
| 20260507062004 | 1 | 254 | 14.5 | 24.1 | 0.00 | 1.70 | 0.00 | 49 | 1017.2 |
| 20260507061504 | 1 | 250 | 20.9 | 33.8 | 0.00 | 1.70 | 0.00 | 49 | 1017.2 |
| 20260507060504 | 1 | 269 | 20.9 | 32.2 | 0.00 | 1.70 | 0.00 | 49 | 1017.2 |
| 20260507060004 | 1 | 260 | 16.1 | 38.6 | 0.00 | 1.70 | 0.00 | 49 | 1017.3 |
| 20260507054504 | 1 | 247 | 14.5 | 25.7 | 0.00 | 1.70 | 1.70 | 48 | 1017.7 |
| 20260507054004 | 1 | 256 | 20.9 | 33.8 | 0.00 | 1.70 | 1.70 | 48 | 1017.7 |
| 20260507053504 | 1 | 251 | 22.5 | 32.2 | 0.00 | 1.70 | 1.70 | 48 | 1017.7 |
| 20260507052504 | 1 | 257 | 14.5 | 32.2 | 0.00 | 1.70 | 1.70 | 48 | 1017.6 |
| 20260507052004 | 1 | 251 | 19.3 | 32.2 | 0.00 | 1.70 | 1.70 | 49 | 1017.4 |
| 20260507051504 | 1 | 266 | 16.1 | 32.2 | 0.00 | 1.70 | 1.70 | 50 | 1017.4 |
| 20260507050504 | 1 | 260 | 9.7 | 22.5 | 0.00 | 1.70 | 1.70 | 50 | 1017.4 |
| 20260507045004 | 1 | 278 | 14.5 | 29.0 | 0.00 | 1.70 | 1.70 | 51 | 1017.7 |
| 20260507044504 | 1 | 266 | 11.3 | 29.0 | 0.00 | 1.70 | 1.70 | 50 | 1017.6 |
| 20260507044004 | 1 | 273 | 16.1 | 32.2 | 0.00 | 1.70 | 1.70 | 50 | 1017.6 |
| 20260507043504 | 1 | 263 | 19.3 | 33.8 | 0.00 | 1.70 | 1.70 | 50 | 1017.4 |
| 20260507043004 | 1 | 258 | 14.5 | 25.7 | 0.00 | 1.70 | 1.70 | 50 | 1017.5 |
| 20260507042504 | 1 | 262 | 16.1 | 27.4 | 0.00 | 1.70 | 1.70 | 50 | 1017.3 |
| 20260507042004 | 1 | 275 | 20.9 | 33.8 | 0.00 | 1.70 | 1.70 | 50 | 1017.3 |
| 20260507041504 | 1 | 275 | 19.3 | 40.2 | 0.00 | 1.70 | 1.70 | 51 | 1017.3 |
| 20260507041004 | 1 | 265 | 32.2 | 40.2 | 0.00 | 1.70 | 1.70 | 51 | 1017.2 |
| 20260507040504 | 1 | 263 | 19.3 | 35.4 | 0.00 | 1.70 | 1.70 | 50 | 1017.1 |
| 20260507040004 | 1 | 261 | 20.9 | 37.0 | 0.00 | 1.70 | 1.70 | 50 | 1017.2 |
| 20260507035504 | 1 | 257 | 19.3 | 37.0 | 0.00 | 1.70 | 1.70 | 50 | 1017.2 |
| 20260507035003 | 1 | 269 | 20.9 | 38.6 | 0.00 | 1.70 | 1.70 | 50 | 1017.6 |
| 20260507034503 | 1 | 265 | 19.3 | 41.8 | 0.00 | 1.70 | 1.70 | 49 | 1017.6 |
| 20260507034004 | 1 | 268 | 19.3 | 45.1 | 0.00 | 1.70 | 1.70 | 50 | 1017.6 |
| 20260507033504 | 1 | 265 | 22.5 | 37.0 | 0.00 | 1.70 | 1.70 | 49 | 1017.6 |
| 20260507033004 | 1 | 255 | 27.4 | 41.8 | 0.00 | 1.70 | 1.70 | 50 | 1017.5 |
| 20260507032504 | 1 | 257 | 20.9 | 35.4 | 0.00 | 1.70 | 1.70 | 51 | 1017.1 |
| 20260507032004 | 1 | 254 | 24.1 | 38.6 | 0.00 | 1.70 | 1.70 | 50 | 1017.1 |
| 20260507031504 | 1 | 255 | 25.7 | 37.0 | 0.00 | 1.70 | 1.70 | 50 | 1016.9 |
| 20260507031004 | 1 | 255 | 25.7 | 37.0 | 0.00 | 1.70 | 1.70 | 51 | 1016.9 |
| 20260507030504 | 1 | 256 | 24.1 | 40.2 | 0.00 | 1.70 | 1.70 | 51 | 1016.9 |
| 20260507030004 | 1 | 246 | 19.3 | 32.2 | 0.00 | 1.70 | 1.70 | 51 | 1016.9 |
| 20260507025004 | 1 | 261 | 16.1 | 38.6 | 0.00 | 1.70 | 1.70 | 52 | 1016.7 |
| 20260507024504 | 1 | 259 | 14.5 | 29.0 | 0.00 | 1.70 | 1.70 | 53 | 1016.8 |
| 20260507023004 | 1 | 262 | 12.9 | 29.0 | 0.00 | 1.70 | 1.70 | 53 | 1016.5 |
| 20260507022504 | 1 | 260 | 11.3 | 35.4 | 0.00 | 1.70 | 1.70 | 53 | 1016.7 |
| 20260507022004 | 1 | 262 | 16.1 | 35.4 | 0.00 | 1.70 | 1.70 | 53 | 1016.5 |
| 20260507021503 | 1 | 248 | 14.5 | 27.4 | 0.00 | 1.70 | 1.70 | 53 | 1016.5 |
| 20260507020004 | 1 | 243 | 14.5 | 27.4 | 0.00 | 1.70 | 1.70 | 52 | 1016.3 |
| 20260507015504 | 1 | 248 | 16.1 | 27.4 | 0.00 | 1.70 | 1.70 | 52 | 1016.2 |
| 20260507015004 | 2 | 244 | 16.1 | 27.4 | 0.00 | 1.70 | 1.70 | 52 | 1016.2 |
| 20260507014504 | 2 | 234 | 11.3 | 20.9 | 0.00 | 1.70 | 1.70 | 52 | 1016.3 |
| 20260507014004 | 2 | 245 | 11.3 | 25.7 | 0.00 | 1.70 | 1.70 | 53 | 1016.2 |
| 20260507013504 | 2 | 242 | 9.7 | 20.9 | 0.03 | 1.70 | 1.70 | 52 | 1016.2 |
| 20260507013005 | 2 | 242 | 9.7 | 16.1 | 0.03 | 1.70 | 1.70 | 51 | 1016.2 |
| 20260507012503 | 2 | 246 | 8.0 | 19.3 | 0.03 | 1.70 | 1.70 | 50 | 1016.2 |
| 20260507011504 | 3 | 254 | 11.3 | 20.9 | 0.03 | 1.70 | 1.70 | 48 | 1016.1 |
| 20260507010504 | 3 | 254 | 11.3 | 29.0 | 0.03 | 1.70 | 1.70 | 49 | 1016.1 |
| 20260507005504 | 3 | 239 | 6.4 | 22.5 | 0.03 | 1.70 | 1.70 | 48 | 1016.4 |
| 20260507005004 | 3 | 241 | 9.7 | 20.9 | 0.03 | 1.70 | 1.70 | 48 | 1016.7 |
| 20260507004504 | 3 | 264 | 8.0 | 29.0 | 0.05 | 1.70 | 1.70 | 48 | 1016.7 |
| 20260507003504 | 4 | 247 | 8.0 | 16.1 | 0.03 | 1.68 | 1.68 | 45 | 1016.7 |
| 20260507003005 | 5 | 251 | 9.7 | 19.3 | 0.03 | 1.68 | 1.68 | 45 | 1016.7 |
| 20260507002504 | 5 | 307 | 4.8 | 14.5 | 0.03 | 1.68 | 1.68 | 46 | 1016.7 |
| 20260507002004 | 5 | 323 | 4.8 | 9.7 | 0.05 | 1.68 | 1.68 | 44 | 1016.7 |
| 20260507001503 | 5 | 226 | 1.6 | 4.8 | 0.05 | 1.68 | 1.68 | 45 | 1016.7 |
| 20260507000504 | 4 | 226 | 3.2 | 8.0 | 0.05 | 1.68 | 1.68 | 43 | 1016.8 |
| 20260507000004 | 5 | 226 | 8.0 | 14.5 | 0.08 | 1.68 | 1.68 | 44 | 1016.8 |
| 20260506235504 | 5 | 205 | 6.4 | 11.3 | 0.08 | 1.68 | 1.68 | 43 | 1016.8 |
| 20260506235004 | 4 | 292 | 3.2 | 4.8 | 0.08 | 1.68 | 1.68 | 45 | 1016.8 |
| 20260506234504 | 4 | 223 | 8.0 | 14.5 | 0.08 | 1.65 | 1.65 | 46 | 1016.9 |
| 20260506234004 | 3 | 250 | 16.1 | 22.5 | 0.10 | 1.65 | 1.65 | 45 | 1016.9 |
| 20260506233504 | 3 | 234 | 6.4 | 20.9 | 0.10 | 1.65 | 1.65 | 48 | 1016.7 |
| 20260506233004 | 3 | 226 | 11.3 | 32.2 | 0.13 | 1.68 | 1.65 | 47 | 1016.7 |
| 20260506232504 | 4 | 245 | 9.7 | 19.3 | 0.15 | 1.68 | 1.65 | 50 | 1016.7 |
| 20260506232003 | 3 | 251 | 14.5 | 24.1 | 0.15 | 1.65 | 1.63 | 49 | 1016.8 |
| 20260506231504 | 3 | 251 | 16.1 | 27.4 | 0.18 | 1.65 | 1.63 | 48 | 1016.7 |
| 20260506231004 | 3 | 268 | 9.7 | 22.5 | 0.20 | 1.65 | 1.63 | 51 | 1016.7 |
| 20260506230504 | 3 | 259 | 16.1 | 29.0 | 0.23 | 1.65 | 1.63 | 49 | 1016.7 |
| 20260506230004 | 3 | 268 | 12.9 | 20.9 | 0.25 | 1.63 | 1.60 | 49 | 1016.6 |
| 20260506225504 | 3 | 245 | 11.3 | 32.2 | 0.28 | 1.63 | 1.60 | 49 | 1016.8 |
| 20260506224504 | 3 | 291 | 3.2 | 9.7 | 0.33 | 1.60 | 1.57 | 69 | 1016.9 |
| 20260506224004 | 2 | 115 | 3.2 | 8.0 | 0.36 | 1.57 | 1.55 | 71 | 1016.9 |
| 20260506223504 | 2 | 78 | 3.2 | 4.8 | 0.41 | 1.57 | 1.55 | 68 | 1016.9 |
| 20260506223004 | 2 | 65 | 1.6 | 4.8 | 0.43 | 1.55 | 1.52 | 70 | 1017.0 |
| 20260506222004 | 2 | 48 | 3.2 | 8.0 | 0.48 | 1.50 | 1.47 | 70 | 1016.9 |
| 20260506221004 | 2 | 75 | 3.2 | 4.8 | 0.51 | 1.45 | 1.42 | 69 | 1017.2 |
| 20260506220504 | 2 | 85 | 1.6 | 3.2 | 0.53 | 1.42 | 1.40 | 69 | 1017.1 |
| 20260506220005 | 2 | 85 | 0.0 | 3.2 | 0.53 | 1.37 | 1.35 | 69 | 1017.2 |
| 20260506215503 | 2 | 85 | 0.0 | 1.6 | 0.58 | 1.35 | 1.32 | 66 | 1017.2 |
| 20260506215005 | 3 | 51 | 1.6 | 4.8 | 0.58 | 1.30 | 1.27 | 70 | 1017.3 |
| 20260506214504 | 2 | 66 | 3.2 | 4.8 | 0.61 | 1.30 | 1.24 | 68 | 1017.5 |
| 20260506214004 | 2 | 57 | 1.6 | 4.8 | 0.64 | 1.24 | 1.19 | 69 | 1017.6 |
| 20260506213504 | 2 | 58 | 4.8 | 8.0 | 0.61 | 1.19 | 1.14 | 71 | 1017.7 |
| 20260506211504 | 1 | 115 | 0.0 | 3.2 | 0.56 | 1.02 | 0.97 | 70 | 1017.8 |
| 20260506211004 | 1 | 111 | 1.6 | 3.2 | 0.53 | 0.97 | 0.91 | 72 | 1017.8 |
| 20260506210504 | 1 | 121 | 0.0 | 1.6 | 0.51 | 0.91 | 0.86 | 72 | 1017.8 |
| 20260506205504 | 1 | 85 | 3.2 | 4.8 | 0.41 | 0.81 | 0.74 | 71 | 1018.1 |
| 20260506205004 | 1 | 88 | 1.6 | 4.8 | 0.38 | 0.76 | 0.69 | 71 | 1018.4 |
| 20260506204504 | 1 | 88 | 3.2 | 8.0 | 0.33 | 0.71 | 0.64 | 70 | 1018.2 |
| 20260506204003 | 1 | 57 | 3.2 | 4.8 | 0.25 | 0.64 | 0.56 | 72 | 1018.6 |
| 20260506203004 | 0 | 77 | 3.2 | 4.8 | 0.20 | 0.56 | 0.48 | 78 | 1018.9 |
| 20260506202004 | 0 | 120 | 4.8 | 8.0 | 0.18 | 0.51 | 0.43 | 79 | 1018.8 |
| 20260506201004 | 0 | 62 | 4.8 | 9.7 | 0.13 | 0.48 | 0.38 | 80 | 1018.9 |
| 20260506200504 | 0 | 86 | 3.2 | 4.8 | 0.13 | 0.46 | 0.36 | 77 | 1019.0 |
| 20260506200004 | 0 | 66 | 4.8 | 9.7 | 0.13 | 0.46 | 0.36 | 78 | 1019.0 |
| 20260506195504 | 0 | 117 | 4.8 | 4.8 | 0.13 | 0.43 | 0.33 | 77 | 1019.0 |
| 20260506195004 | 0 | 114 | 8.0 | 9.7 | 0.10 | 0.41 | 0.30 | 77 | 1019.0 |
| 20260506194504 | 0 | 121 | 3.2 | 11.3 | 0.13 | 0.41 | 0.30 | 78 | 1018.9 |
| 20260506194004 | 0 | 81 | 4.8 | 12.9 | 0.13 | 0.41 | 0.30 | 79 | 1019.0 |
| 20260506193504 | 0 | 109 | 8.0 | 14.5 | 0.10 | 0.38 | 0.28 | 79 | 1019.0 |
| 20260506193004 | 0 | 107 | 8.0 | 11.3 | 0.13 | 0.41 | 0.28 | 79 | 1019.0 |
| 20260506192504 | 0 | 76 | 8.0 | 14.5 | 0.13 | 0.41 | 0.28 | 80 | 1019.0 |
| 20260506192003 | 0 | 84 | 8.0 | 19.3 | 0.13 | 0.38 | 0.25 | 79 | 1019.0 |
| 20260506191504 | 0 | 91 | 8.0 | 19.3 | 0.13 | 0.38 | 0.25 | 80 | 1019.0 |
| 20260506191004 | 0 | 117 | 9.7 | 16.1 | 0.13 | 0.38 | 0.25 | 77 | 1019.0 |
| 20260506190505 | 0 | 127 | 8.0 | 11.3 | 0.13 | 0.36 | 0.23 | 77 | 1019.0 |